STARLINK-1331, 45578

Orbit data source: Space-Track

STARLINK-1331, 45578 is a payload satellite owned by SpaceX/Seattle (US) in LEO that was launched on Wed, 22 Apr 2020 UTC via an FALCON 9 launch vehicle from the Air Force Eastern Test Range (AFETR). Payload-class satellites include a variety of spacecraft equipped with specific instruments for various scientific and technological missions. These include communications satellites like Starlink; space stations such as the ISS; scientific satellites like the Hubble; Earth observation satellites from companies like Planet Labs, Umbra, and HawkEye 360; GPS; miniature CubeSats for education and research; and military/defense satellites.

Loading next visibility...
Identifier
45578, 2020-025AZ
Orbit
LEO
Country
Flag of USUS
Related business
Manufacturer
SpaceX/Seattle
Mission
Operational Commercial Communications
Bus & Motor
STARLINK, Unknown motor
Mass
260 kg wet, ~248 kg dry
Launch date (UTC)
2020-04-22 (6 years ago)
Launch vehicle
FALCON 9
Launch site
Air Force Eastern Test Range (AFETR)
Object type
Payload
Rocket body
Debris
Shape & HBR
Box + 1 Pan, 10.1 m
Radar Cross Section
13.562 m², Large (>1 m²)

Expand to show TLE details & history
Last TLE update: 18 hours ago

TLE from 18 hours ago
0 STARLINK-1331
1 45578U 20025AZ  25340.83308512  .00006414  00000-0  44881-3 0  9995
2 45578  53.0544 133.4683 0001281  81.4564 278.6570 15.06423259311524
Epoch: 2025-12-06T19:59Z
TLE epoch observation values (Epoch: 2025-12-06T19:59:38.554Z)
Latitude
-0.00003°
Longitude
117.70248°
Altitude
547.886 km
Speed
7.589 km/s
True Right ascension
08h 53m 52s
True Declination
0° 00' 00"
Sunlit
Object was in full shadow at epoch
Visualization orbit readout
Latitude
Unknown
Longitude
Unknown
Altitude
Unknown
Speed
Unknown
Apparent Right ascension
Unknown
Apparent Declination
Unknown
Sunlit
N/A
Visualization observer readout
Local Sidereal Time
12:00:26
Azimuth
Unknown
Elevation
Unknown
Doppler factor
Unknown
Orbital elements
Apogee altitude
548.298 km
Perigee altitude
546.524 km
Semi-major axis
6,925.548 km
Eccentricity
0.00013
Inclination
53.0544°
RAAN
133.4683°
Arg. of periapsis
81.4564°
True anomaly
278.64249°
Mean anomaly
278.657°
Eccentric anomaly
278.64974°
Mean motion
3.76584 °/min
Orbital period
95.6 mins
BSTAR
0.00044881
Loading maneuver chart data...
Computing Atmospheric mass density...

Documentation

Showing up to 5 results
|